Regional Weather Roundup
Issued by NWS San Angelo, TX

Home | Current Version | Previous Version | Graphics & Text | Print | Product List | Glossary Off
Versions: 1 2 3 4 5 6 7 8 9 10 11 12 13 14 15 16 17 18 19 20 21 22 23 24 25 26 27 28 29 30 31 32 33 34 35 36 37 38 39 40 41 42 43 44 45 46 47 48 49 50

000
ASUS44 KSJT 240610
RWRSJT
WEST CENTRAL TEXAS REGIONAL WEATHER ROUNDUP
NATIONAL WEATHER SERVICE SAN ANGELO TX
100 AM CDT THU JUL 24 2014

NOTE: "FAIR" INDICATES FEW OR NO CLOUDS BELOW 12,000 FEET WITH NO
SIGNIFICANT WEATHER AND/OR OBSTRUCTIONS TO VISIBILITY.

TXZ049-054-064>066-071>073-076>078-098-099-113-114-127-128-139-140-
154-155-168>170-240700
...LOCATIONS ACROSS WEST CENTRAL TEXAS...

CITY           SKY/WX    TMP DP  RH WIND       PRES   REMARKS
SAN ANGELO     MOCLDY    79  65  62 E6        30.10S
ABILENE        PTCLDY    81  65  58 SE6       30.12R
DYESS AFB      PTCLDY    79  65  62 SE6       30.11S
JUNCTION       MOCLDY    81  65  58 E5        30.11R
SWEETWATER     NOT AVBL
BROWNWOOD      MOCLDY    77  66  69 E6        30.09R
COLEMAN        NOT AVBL
SONORA         NOT AVBL
OZONA          NOT AVBL
BRADY          NOT AVBL
$$

TEXAS PANHANDLE/OKLAHOMA PANHANDLE

CITY           SKY/WX    TMP DP  RH WIND       PRES   REMARKS
AMARILLO       CLEAR     76  59  55 S9        30.22F
BORGER         CLEAR     84  58  40 S10       30.18S
CANADIAN       NOT AVBL
DALHART        CLEAR     71  59  65 S8        30.25R
DUMAS          NOT AVBL
GUYMON         NOT AVBL
HEREFORD       NOT AVBL
PAMPA          NOT AVBL
PERRYTON       NOT AVBL
$$

SOUTHERN PANHANDLE/SOUTH PLAINS/ROLLING PLAINS

CITY           SKY/WX    TMP DP  RH WIND       PRES   REMARKS
LUBBOCK        CLEAR     74  61  63 E6        30.21S
SNYDER         NOT AVBL
CHILDRESS      PTCLDY    81  66  60 S8        30.12S
SEMINOLE       NOT AVBL
$$

PERMIAN BASIN

CITY           SKY/WX    TMP DP  RH WIND       PRES   REMARKS
MIDLAND        CLEAR     82  59  45 SE8       30.15F
ODESSA         CLEAR     83  57  41 SE7       30.17S
WINK           CLEAR     79  66  64 E5        30.13S
$$

FAR WEST/SOUTHWEST MOUNTAINS/TRANS PECOS

CITY           SKY/WX    TMP DP  RH WIND       PRES   REMARKS
ALPINE         NOT AVBL
DRYDEN           N/A     85  59  41 NE6       30.08S
EL PASO        CLEAR     81  50  33 E7        30.18R
FORT STOCKTON  CLEAR     83  56  39 SE9       30.15F
GUADALUPE PASS PTCLDY    74  48  39 E12       30.34S
MARFA          CLEAR     68  54  60 NE5       30.30F
PECOS          CLEAR     79  54  41 NE5       30.13R
$$

DALLAS/FORT WORTH METROPLEX

CITY           SKY/WX    TMP DP  RH WIND       PRES   REMARKS
DFW AIRPORT    CLOUDY    78  66  66 SW5       30.01F
FTW MEACHAM    CLOUDY    78  66  66 CALM      30.02F
DAL-EXECUTIVE  CLOUDY    74  68  81 W6        30.00F
GRAND PRAIRIE  NOT AVBL
ADDISON        NOT AVBL
MESQUITE       NOT AVBL
LANCASTER      NOT AVBL
$$

NORTH CENTRAL TEXAS

CITY           SKY/WX    TMP DP  RH WIND       PRES   REMARKS
SHRMAN/DENISON NOT AVBL
GAINESVILLE    NOT AVBL
BRIDGEPORT     NOT AVBL
DENTON         CLOUDY    75  68  78 NW6       30.03F
WAXAHACHIE     NOT AVBL
GRANBURY       NOT AVBL
$$

WESTERN NORTH TEXAS

CITY           SKY/WX    TMP DP  RH WIND       PRES   REMARKS
WICHITA FALLS  CLOUDY    79  75  87 E9        30.07R
VERNON         MOCLDY    82  70  65 S3        30.08F
BRECKENRIDGE   CLOUDY    85  65  52 SE7       30.07F
COMANCHE       NOT AVBL
$$

CENTRAL AND SOUTH CENTRAL TEXAS

CITY           SKY/WX    TMP DP  RH WIND       PRES   REMARKS
AUSTIN/BERGSTM MOCLDY    80  69  69 CALM      30.03S
WACO           PTCLDY    76  65  68 CALM      30.01F
HILLSBORO      NOT AVBL
TEMPLE         PTCLDY    75  63  64 CALM      30.05S
KILLEEN-GRAY   MOCLDY    81  70  69 E5        30.06F
FORT HOOD      PTCLDY    80  66  62 E3        30.05F
GEORGETOWN     PTCLDY    81  70  69 NE3       30.06S
LAGO VISTA     NOT AVBL
SAN MARCOS     PTCLDY    79  66  65 CALM      30.04F
NEW BRAUNFELS  PTCLDY    82  70  66 E3        30.02F
RANDOLPH AFB   CLOUDY    82  72  69 SE5       30.04F
SAN ANTONIO    MOCLDY    85  73  67 E7        30.06R
STINSON        MOCLDY    83  72  69 SE5       30.03R
PLEASANTON     NOT AVBL
LA GRANGE      NOT AVBL
GIDDINGS       NOT AVBL
$$

EAST TEXAS

CITY           SKY/WX    TMP DP  RH WIND       PRES   REMARKS
PARIS          CLOUDY    70  64  83 NE3       30.01S
CLARKSVILLE    NOT AVBL
TYLER          PTCLDY    71  68  90 SW3       30.00F
LONGVIEW       PTCLDY    70  68  93 CALM      29.99S
PALESTINE      NOT AVBL
NACOGDOCHES    MOCLDY    72  68  88 CALM      29.98S
$$

TEXAS HILL COUNTRY AND EDWARDS PLATEAU

CITY           SKY/WX    TMP DP  RH WIND       PRES   REMARKS
LLANO          NOT AVBL
HORSESHOE BAY  NOT AVBL
KERRVILLE      NOT AVBL
FREDERICKSBRG  NOT AVBL
ROCKSPRINGS    NOT AVBL
HONDO          CLOUDY    84  70  62 E10       30.06R
UVALDE         NOT AVBL
DEL RIO        MOCLDY    88  63  43 E7        30.01R
$$

SOUTHEAST TEXAS

CITY           SKY/WX    TMP DP  RH WIND       PRES   REMARKS
COLLEGE STN    MOCLDY    78  66  66 SE5       29.99F
CALDWELL       NOT AVBL
CROCKETT       NOT AVBL
BRENHAM        NOT AVBL
HUNTSVILLE     CLOUDY    77  65  66 CALM      29.98F
CONROE         CLOUDY    76  68  76 CALM      29.98F
HOUSTON BUSH   CLOUDY    78  73  84 E5        29.99F THUNDER
HOUSTON HOBBY  CLOUDY    77  73  87 E5        30.01R THUNDER
PERLAND        LGT RAIN  78  74  87 E8        30.03S
WHARTON        NOT AVBL
$$

THE UPPER TEXAS COAST

CITY           SKY/WX    TMP DP  RH WIND       PRES   REMARKS
ORANGE         NOT AVBL
PORT ARTHUR    CLOUDY    76  73  91 NE6       29.98F
GALVESTON      LGT RAIN  80  72  76 NE18      30.02R
ANGLETON       CLOUDY    76  75  97 CALM      29.99F
BAY CITY       NOT AVBL
$$

TEXAS COASTAL BEND, RIO GRANDE PLAINS DEEP SOUTH TEXAS

CITY           SKY/WX    TMP DP  RH WIND       PRES   REMARKS
VICTORIA       CLOUDY    81  76  84 SE7       30.02S
BEEVILLE       NOT AVBL
ROCKPORT       MOCLDY    82  77  84 S6        29.99F
PORT ARANSAS   NOT AVBL
PORT LAVACA    NOT AVBL
CORPUS CHRISTI MOCLDY    81  76  84 S5        30.00S
KINGSVILLE NAS PTCLDY    81  79  94 S6        30.01R
COTULLA        PTCLDY    84  67  56 SE9       29.99R
LAREDO         PTCLDY    87  71  58 SE10      30.02S
BROWNSVILLE    PTCLDY    78  75  90 S6        30.00F
PORT ISABEL    CLEAR     81  73  76 S3        30.00S
HEBBRONVILLE   NOT AVBL
MCALLEN        PTCLDY    82  76  81 SE8       30.00F
WESLACO        NOT AVBL
FALFURRIAS     NOT AVBL
EDINBURG       NOT AVBL
$$


USA.gov is the U.S. government's official web portal to all federal, state and local government web resources and services.